Location: Gwatt
(46.7204°N, 7.6223°E)
Time: 09:01:25
(UTC+00:00)

Courier 1B - Visible Passes

Search period start: 24 January 2021 00:00
Search period end: 03 February 2021 00:00
Orbit: 962 x 1209 km, 28.3° (Epoch: 23 January)

Date Brightness Start Highest point End Pass type
(mag) Time Alt. Az. Time Alt. Az. Time Alt. Az.
31 Jan 9.9 19:38:52 10° S 19:39:15 11° S 19:39:15 11° S visible
01 Feb 9.8 18:46:48 10° S 18:48:00 10° SSE 18:48:58 10° SSE visible
02 Feb 9.7 19:43:14 10° SSW 19:45:33 14° S 19:45:33 14° S visible
